Weather History for Rome, NY

Change the Weather History Date:

Saturday, September 21, 2013

  Actual Average Record
Temperature  
Mean Temperature 72 °F -  
Max Temperature 84 °F 67 °F 84 °F (1980)
Min Temperature 59 °F 50 °F 38 °F (1990)
Cooling Degree Days 6    
Growing Degree Days 22 (Base 50)    
Moisture  
Dew Point 57 °F    
Average Humidity 75    
Maximum Humidity 100    
Minimum Humidity 38    
Precipitation  
Precipitation 0.62 in - - ()
Sea Level Pressure  
Sea Level Pressure 29.73 in    
Wind  
Wind Speed 8 mph (SSE)    
Max Wind Speed 16 mph    
Max Gust Speed 23 mph    
Visibility 8 miles    
Events Rain    
Averages and records for this station are not official NWS values.
T = Trace of Precipitation, MM = Missing Value Source: NWS Daily Summary

Daily Weather History Graph

Daily Weather History Graph

Search for Another Location

Airport:

Trip Planner

Search our weather history database for the weather conditions in past years. The results will help you decide how hot, cold, wet, or windy it might be!

Date:

Astronomy

Sep. 21, 2013 Rise Set
Actual Time 6:48 AM EDT 7:00 PM EDT
Civil Twilight 6:19 AM EDT 7:28 PM EDT
Nautical Twilight 5:46 AM EDT 8:02 PM EDT
Astronomical Twilight 5:11 AM EDT 8:36 PM EDT
Moon 8:04 PM EDT (9/21) 9:08 AM EDT (9/21)
Length of Visible Light 13h 09m
Length of Day
12h 12m
Waning Gibbous, 94% of the Moon is Illuminated
Sep 21
Waning Gibbous
Sep 26
Last Quarter
Oct 4
New
Oct 11
First Quarter
Oct 18
Full

Hourly Weather History & Observations

Time (EDT) Temp. Heat Index Dew Point Humidity Pressure Visibility Wind Dir Wind Speed Gust Speed Precip Events Conditions
12:53 AM 63.0 °F - 55.0 °F 75% 29.89 in 10.0 mi East 6.9 mph - N/A   Clear
1:53 AM 64.0 °F - 55.0 °F 73% 29.87 in 10.0 mi East 6.9 mph - N/A   Clear
2:53 AM 59.0 °F - 54.0 °F 83% 29.86 in 10.0 mi ESE 10.4 mph - N/A   Clear
3:53 AM 61.0 °F - 55.0 °F 81% 29.84 in 10.0 mi East 11.5 mph - N/A   Clear
4:53 AM 70.0 °F - 55.0 °F 59% 29.84 in 10.0 mi ESE 6.9 mph - N/A   Scattered Clouds
5:53 AM 72.0 °F - 55.0 °F 55% 29.82 in 10.0 mi ESE 8.1 mph - N/A   Scattered Clouds
6:53 AM 73.0 °F - 55.9 °F 55% 29.81 in 10.0 mi East 12.7 mph - N/A   Mostly Cloudy
7:27 AM 72.0 °F - 55.9 °F 57% 29.82 in 10.0 mi ESE 8.1 mph - N/A   Overcast
7:53 AM 73.9 °F - 55.9 °F 53% 29.81 in 10.0 mi ESE 8.1 mph - N/A   Overcast
8:22 AM 64.0 °F - 57.0 °F 78% 29.80 in 10.0 mi ESE 10.4 mph - N/A   Overcast
8:45 AM 64.0 °F - 57.0 °F 78% 29.80 in 10.0 mi SE 8.1 mph - N/A   Overcast
8:53 AM 64.0 °F - 57.0 °F 78% 29.79 in 10.0 mi SE 9.2 mph - N/A   Overcast
9:24 AM 79.0 °F - 57.0 °F 47% 29.79 in 10.0 mi South 12.7 mph - N/A   Mostly Cloudy
9:53 AM 78.1 °F - 57.0 °F 48% 29.77 in 10.0 mi SE 9.2 mph - N/A   Mostly Cloudy
10:10 AM 66.0 °F - 57.0 °F 73% 29.78 in 10.0 mi ESE 10.4 mph - N/A   Overcast
10:53 AM 66.0 °F - 57.0 °F 73% 29.75 in 10.0 mi SE 9.2 mph 18.4 mph N/A   Overcast
11:09 AM 82.0 °F 81.7 °F 57.0 °F 42% 29.75 in 10.0 mi SSE 11.5 mph - N/A   Mostly Cloudy
11:53 AM 69.1 °F - 57.9 °F 68% 29.72 in 10.0 mi South 10.4 mph - N/A   Mostly Cloudy
12:53 PM 70.0 °F - 57.9 °F 65% 29.71 in 10.0 mi South 15.0 mph 23.0 mph N/A   Overcast
1:53 PM 70.0 °F - 57.0 °F 63% 29.67 in 10.0 mi South 16.1 mph 23.0 mph N/A   Overcast
2:53 PM 84.0 °F 83.0 °F 55.9 °F 38% 29.65 in 10.0 mi SSE 10.4 mph - N/A   Overcast
3:53 PM 72.0 °F - 55.9 °F 57% 29.62 in 10.0 mi SSE 9.2 mph 18.4 mph N/A   Overcast
4:53 PM - - - N/A% 29.63 in 10.0 mi South 8.1 mph - N/A   Overcast
5:29 PM 72.0 °F - 55.9 °F 57% 29.65 in 1.8 mi West 10.4 mph - 0.07 in Rain Heavy Rain
5:53 PM 72.0 °F - 55.9 °F 57% 29.64 in 1.5 mi West 3.5 mph - 0.17 in Rain Heavy Rain
6:00 PM 64.0 °F - 62.1 °F 93% 29.65 in 2.0 mi Calm Calm - 0.02 in Rain Rain
6:12 PM 64.0 °F - 62.1 °F 93% 29.64 in 3.0 mi SW 5.8 mph - 0.04 in Rain Rain
6:32 PM 64.0 °F - 62.1 °F 93% 29.65 in 3.0 mi SW 9.2 mph - 0.07 in Rain Rain
6:53 PM 64.0 °F - 62.1 °F 93% 29.64 in 5.0 mi SW 9.2 mph - 0.09 in Rain Rain
7:53 PM 61.0 °F - 61.0 °F 100% 29.65 in 4.0 mi WNW 13.8 mph - 0.16 in Rain Heavy Rain
8:01 PM 60.1 °F - 59.0 °F 96% 29.67 in 4.0 mi WNW 12.7 mph - 0.02 in Rain Heavy Rain
8:45 PM 60.1 °F - 59.0 °F 96% 29.67 in 5.0 mi West 5.8 mph - 0.10 in Rain Rain
8:53 PM 60.1 °F - 59.0 °F 96% 29.66 in 5.0 mi West 5.8 mph - 0.11 in Rain Rain
9:01 PM 60.1 °F - 59.0 °F 96% 29.67 in 5.0 mi West 4.6 mph - 0.01 in Rain Rain
9:53 PM 59.0 °F - 57.9 °F 96% 29.65 in 9.0 mi ESE 3.5 mph - 0.06 in Rain Light Rain
10:53 PM 59.0 °F - 57.9 °F 96% 29.67 in 10.0 mi SW 3.5 mph - 0.02 in Rain Light Rain
11:12 PM 59.0 °F - 57.9 °F 96% 29.67 in 10.0 mi Calm Calm - 0.00 in   Overcast
11:26 PM 59.0 °F - 57.9 °F 96% 29.67 in 10.0 mi Calm Calm - 0.00 in   Overcast
11:53 PM 59.0 °F - 57.9 °F 96% 29.66 in 10.0 mi Calm Calm - 0.01 in   Overcast